^^
Your Local Weather - Clay, NY Station Historical Data
Daily Summary for January 29, 2017 Units:  English    Metric   Both
« Previous Day
Next Day »
Daily Weekly Monthly Yearly Custom
  High: Low: Average:
Temperature: 32.0 °F 23.0 °F 29.6 °F
Dew Point: 23.8 °F 13.5 °F 18.9 °F
Humidity: 87% 51% 65%
Wind Speed: 6.0mph 0.0mph 3.6mph
Wind Gust: 14.0mph - -
Wind- - West
Pressure: 29.74 in 29.56 in -
Precipitation: 0.00 in    
Historical Graphs
 
 
Tabular Data for January 29, 2017
Time Temperature Dew Point Pressure Wind Wind Speed Wind Gust Humidity Rainfall Rate (Hourly) solar
00:02 31.5 °F 23.5 °F 29.57 in SSW 5.0 mph 9.0 mph 72% 0.00 in 0 W/m2
00:08 31.4 °F 23.7 °F 29.57 in SW 4.0 mph 9.0 mph 73% 0.00 in 0 W/m2
00:13 31.4 °F 23.7 °F 29.57 in SSW 3.0 mph 6.0 mph 73% 0.00 in 0 W/m2
00:20 31.4 °F 23.7 °F 29.57 in West 4.0 mph 4.0 mph 73% 0.00 in 0 W/m2
00:25 31.4 °F 23.7 °F 29.57 in SSW 4.0 mph 5.0 mph 73% 0.00 in 0 W/m2
00:32 31.4 °F 23.7 °F 29.57 in SW 4.0 mph 4.0 mph 73% 0.00 in 0 W/m2
00:38 31.4 °F 23.7 °F 29.57 in SSW 4.0 mph 7.0 mph 73% 0.00 in 0 W/m2
00:44 31.4 °F 23.7 °F 29.56 in SSW 3.0 mph 3.0 mph 73% 0.00 in 0 W/m2
00:50 31.4 °F 23.7 °F 29.56 in SSW 4.0 mph 4.0 mph 73% 0.00 in 0 W/m2
00:55 31.5 °F 23.8 °F 29.56 in SSW 5.0 mph 6.0 mph 73% 0.00 in 0 W/m2
01:02 31.5 °F 23.8 °F 29.56 in SSW 4.0 mph 6.0 mph 73% 0.00 in 0 W/m2
01:08 31.5 °F 23.5 °F 29.56 in SW 4.0 mph 6.0 mph 72% 0.00 in 0 W/m2
01:14 31.5 °F 23.5 °F 29.56 in SW 4.0 mph 6.0 mph 72% 0.00 in 0 W/m2
01:20 31.6 °F 23.3 °F 29.56 in SW 5.0 mph 13.0 mph 71% 0.00 in 0 W/m2
01:26 31.7 °F 23.4 °F 29.56 in WSW 5.0 mph 13.0 mph 71% 0.00 in 0 W/m2
01:32 31.7 °F 23.0 °F 29.56 in SW 4.0 mph 7.0 mph 70% 0.00 in 0 W/m2
01:38 31.7 °F 23.0 °F 29.56 in SSW 4.0 mph 7.0 mph 70% 0.00 in 0 W/m2
01:44 31.8 °F 23.1 °F 29.56 in WSW 4.0 mph 4.0 mph 70% 0.00 in 0 W/m2
01:50 31.7 °F 23.0 °F 29.56 in SSW 3.0 mph 3.0 mph 70% 0.00 in 0 W/m2
01:56 31.7 °F 23.0 °F 29.56 in West 3.0 mph 11.0 mph 70% 0.00 in 0 W/m2
02:02 31.8 °F 22.8 °F 29.56 in WSW 3.0 mph 5.0 mph 69% 0.00 in 0 W/m2
02:08 31.8 °F 22.8 °F 29.56 in SW 2.0 mph 10.0 mph 69% 0.00 in 0 W/m2
02:14 31.9 °F 22.5 °F 29.56 in SSE 3.0 mph 7.0 mph 68% 0.00 in 0 W/m2
02:20 32.0 °F 22.6 °F 29.57 in West 5.0 mph 5.0 mph 68% 0.00 in 0 W/m2
02:26 32.0 °F 22.6 °F 29.57 in SW 5.0 mph 7.0 mph 68% 0.00 in 0 W/m2
02:32 31.9 °F 22.9 °F 29.57 in SW 5.0 mph 9.0 mph 69% 0.00 in 0 W/m2
02:38 31.8 °F 22.8 °F 29.57 in SW 5.0 mph 9.0 mph 69% 0.00 in 0 W/m2
02:44 31.8 °F 22.8 °F 29.57 in West 3.0 mph 6.0 mph 69% 0.00 in 0 W/m2
02:50 31.8 °F 22.8 °F 29.57 in SW 3.0 mph 6.0 mph 69% 0.00 in 0 W/m2
02:56 31.7 °F 22.7 °F 29.57 in SSW 3.0 mph 6.0 mph 69% 0.00 in 0 W/m2
03:02 31.7 °F 22.7 °F 29.57 in WSW 3.0 mph 6.0 mph 69% 0.00 in 0 W/m2
03:08 31.7 °F 22.7 °F 29.57 in SW 4.0 mph 6.0 mph 69% 0.00 in 0 W/m2
03:14 31.7 °F 22.7 °F 29.57 in SW 4.0 mph 4.0 mph 69% 0.00 in 0 W/m2
03:20 31.6 °F 22.2 °F 29.57 in West 3.0 mph 4.0 mph 68% 0.00 in 0 W/m2
03:26 31.6 °F 22.2 °F 29.57 in SSW 4.0 mph 5.0 mph 68% 0.00 in 0 W/m2
03:32 31.5 °F 22.1 °F 29.57 in SW 3.0 mph 4.0 mph 68% 0.00 in 0 W/m2
03:38 31.5 °F 22.5 °F 29.57 in West 3.0 mph 4.0 mph 69% 0.00 in 0 W/m2
03:44 31.4 °F 22.1 °F 29.57 in South 3.0 mph 5.0 mph 68% 0.00 in 0 W/m2
03:50 31.5 °F 22.5 °F 29.57 in WSW 4.0 mph 4.0 mph 69% 0.00 in 0 W/m2
03:56 31.5 °F 22.1 °F 29.57 in WSW 5.0 mph 14.0 mph 68% 0.00 in 0 W/m2
04:02 31.4 °F 22.4 °F 29.56 in West 5.0 mph 7.0 mph 69% 0.00 in 0 W/m2
04:08 31.4 °F 22.4 °F 29.56 in West 4.0 mph 8.0 mph 69% 0.00 in 0 W/m2
04:14 31.4 °F 22.4 °F 29.57 in WSW 5.0 mph 7.0 mph 69% 0.00 in 0 W/m2
04:20 31.3 °F 22.6 °F 29.57 in West 4.0 mph 8.0 mph 70% 0.00 in 0 W/m2
04:26 31.2 °F 22.5 °F 29.57 in West 4.0 mph 8.0 mph 70% 0.00 in 0 W/m2
04:32 31.2 °F 22.5 °F 29.57 in West 5.0 mph 5.0 mph 70% 0.00 in 0 W/m2
04:38 31.2 °F 22.5 °F 29.57 in West 4.0 mph 5.0 mph 70% 0.00 in 0 W/m2
04:44 31.1 °F 22.5 °F 29.57 in WSW 3.0 mph 7.0 mph 70% 0.00 in 0 W/m2
04:50 31.0 °F 22.4 °F 29.58 in WSW 4.0 mph 4.0 mph 70% 0.00 in 0 W/m2
04:56 30.9 °F 22.3 °F 29.58 in SW 4.0 mph 8.0 mph 70% 0.00 in 0 W/m2
05:02 30.8 °F 22.2 °F 29.58 in WSW 4.0 mph 7.0 mph 70% 0.00 in 0 W/m2
05:08 30.7 °F 22.4 °F 29.58 in SW 5.0 mph 9.0 mph 71% 0.00 in 0 W/m2
05:14 30.7 °F 22.4 °F 29.58 in WSW 5.0 mph 7.0 mph 71% 0.00 in 0 W/m2
05:20 30.6 °F 22.3 °F 29.58 in WSW 4.0 mph 9.0 mph 71% 0.00 in 0 W/m2
05:26 30.4 °F 22.4 °F 29.57 in WSW 2.0 mph 9.0 mph 72% 0.00 in 0 W/m2
05:32 30.2 °F 22.3 °F 29.58 in West 2.0 mph 2.0 mph 72% 0.00 in 0 W/m2
05:38 30.2 °F 22.6 °F 29.58 in WSW 3.0 mph 7.0 mph 73% 0.00 in 0 W/m2
05:44 30.2 °F 22.6 °F 29.58 in WSW 4.0 mph 4.0 mph 73% 0.00 in 0 W/m2
05:50 30.2 °F 22.6 °F 29.58 in SW 3.0 mph 5.0 mph 73% 0.00 in 0 W/m2
05:56 30.2 °F 22.6 °F 29.58 in WNW 4.0 mph 5.0 mph 73% 0.00 in 0 W/m2
06:02 30.2 °F 22.6 °F 29.59 in West 5.0 mph 9.0 mph 73% 0.00 in 0 W/m2
06:08 30.1 °F 22.5 °F 29.59 in SW 5.0 mph 9.0 mph 73% 0.00 in 0 W/m2
06:14 29.9 °F 22.3 °F 29.59 in West 3.0 mph 7.0 mph 73% 0.00 in 0 W/m2
06:20 29.9 °F 22.3 °F 29.59 in WSW 4.0 mph 4.0 mph 73% 0.00 in 0 W/m2
06:26 29.8 °F 22.2 °F 29.59 in WNW 3.0 mph 5.0 mph 73% 0.00 in 0 W/m2
06:38 30.0 °F 22.4 °F 29.59 in WNW 4.0 mph 7.0 mph 73% 0.00 in 0 W/m2
06:44 30.2 °F 22.3 °F 29.59 in West 4.0 mph 5.0 mph 72% 0.00 in 0 W/m2
06:50 30.2 °F 22.3 °F 29.59 in West 3.0 mph 3.0 mph 72% 0.00 in 0 W/m2
06:56 30.2 °F 22.3 °F 29.59 in WSW 2.0 mph 3.0 mph 72% 0.00 in 0 W/m2
07:02 30.2 °F 22.3 °F 29.59 in West 2.0 mph 3.0 mph 72% 0.00 in 0 W/m2
07:08 30.3 °F 22.0 °F 29.59 in West 3.0 mph 4.0 mph 71% 0.00 in 0 W/m2
07:14 30.3 °F 22.0 °F 29.59 in WSW 3.0 mph 5.0 mph 71% 0.00 in 0 W/m2
07:20 30.4 °F 22.1 °F 29.59 in West 4.0 mph 4.0 mph 71% 0.00 in 0 W/m2
07:26 30.4 °F 22.1 °F 29.59 in West 4.0 mph 8.0 mph 71% 0.00 in 0 W/m2
07:32 30.4 °F 22.1 °F 29.59 in West 4.0 mph 4.0 mph 71% 0.00 in 5 W/m2
07:38 30.4 °F 22.1 °F 29.59 in West 4.0 mph 6.0 mph 71% 0.00 in 9 W/m2
07:44 30.3 °F 22.0 °F 29.60 in West 4.0 mph 7.0 mph 71% 0.00 in 9 W/m2
07:50 30.3 °F 22.0 °F 29.60 in SW 4.0 mph 6.0 mph 71% 0.00 in 11 W/m2
07:56 30.3 °F 22.0 °F 29.60 in SW 4.0 mph 6.0 mph 71% 0.00 in 14 W/m2
08:02 30.4 °F 22.1 °F 29.60 in WSW 4.0 mph 4.0 mph 71% 0.00 in 18 W/m2
08:08 30.4 °F 21.8 °F 29.61 in WNW 4.0 mph 5.0 mph 70% 0.00 in 19 W/m2
08:14 30.4 °F 22.1 °F 29.61 in SW 3.0 mph 4.0 mph 71% 0.00 in 28 W/m2
08:20 30.4 °F 21.8 °F 29.61 in SW 4.0 mph 4.0 mph 70% 0.00 in 30 W/m2
08:26 30.4 °F 21.4 °F 29.62 in West 4.0 mph 6.0 mph 69% 0.00 in 32 W/m2
08:32 30.4 °F 21.4 °F 29.62 in SSW 5.0 mph 6.0 mph 69% 0.00 in 32 W/m2
08:38 30.4 °F 21.8 °F 29.62 in WSW 4.0 mph 9.0 mph 70% 0.00 in 32 W/m2
08:44 30.3 °F 21.3 °F 29.62 in SSW 4.0 mph 6.0 mph 69% 0.00 in 35 W/m2
08:50 30.3 °F 21.7 °F 29.63 in West 4.0 mph 8.0 mph 70% 0.00 in 40 W/m2
08:56 30.3 °F 21.7 °F 29.63 in South 4.0 mph 8.0 mph 70% 0.00 in 44 W/m2
09:02 30.2 °F 21.6 °F 29.63 in SSW 4.0 mph 12.0 mph 70% 0.00 in 53 W/m2
09:08 30.3 °F 21.3 °F 29.63 in SW 5.0 mph 12.0 mph 69% 0.00 in 60 W/m2
09:14 30.2 °F 20.6 °F 29.63 in WSW 5.0 mph 7.0 mph 67% 0.00 in 62 W/m2
09:20 30.3 °F 20.3 °F 29.63 in West 6.0 mph 6.0 mph 66% 0.00 in 67 W/m2
09:26 30.3 °F 20.6 °F 29.64 in SW 5.0 mph 6.0 mph 67% 0.00 in 65 W/m2
09:32 30.3 °F 20.6 °F 29.64 in West 4.0 mph 5.0 mph 67% 0.00 in 69 W/m2
09:38 30.3 °F 20.6 °F 29.64 in WSW 4.0 mph 5.0 mph 67% 0.00 in 63 W/m2
09:44 30.4 °F 21.1 °F 29.64 in SW 2.0 mph 3.0 mph 68% 0.00 in 65 W/m2
09:50 30.4 °F 20.7 °F 29.64 in West 3.0 mph 3.0 mph 67% 0.00 in 74 W/m2
09:56 30.4 °F 20.7 °F 29.65 in WSW 3.0 mph 6.0 mph 67% 0.00 in 83 W/m2
10:02 30.4 °F 20.4 °F 29.65 in WNW 4.0 mph 11.0 mph 66% 0.00 in 93 W/m2
10:08 30.5 °F 20.1 °F 29.65 in SW 5.0 mph 11.0 mph 65% 0.00 in 104 W/m2
10:14 30.6 °F 20.2 °F 29.65 in SSW 5.0 mph 8.0 mph 65% 0.00 in 107 W/m2
10:20 30.6 °F 19.9 °F 29.65 in SW 5.0 mph 5.0 mph 64% 0.00 in 109 W/m2
10:26 30.6 °F 19.1 °F 29.66 in West 4.0 mph 9.0 mph 62% 0.00 in 105 W/m2
10:32 30.6 °F 18.7 °F 29.66 in West 4.0 mph 5.0 mph 61% 0.00 in 102 W/m2
10:38 30.7 °F 18.8 °F 29.66 in WNW 4.0 mph 5.0 mph 61% 0.00 in 105 W/m2
10:44 30.7 °F 18.8 °F 29.66 in WSW 3.0 mph 5.0 mph 61% 0.00 in 123 W/m2
10:50 30.6 °F 18.0 °F 29.66 in West 5.0 mph 5.0 mph 59% 0.00 in 128 W/m2
10:56 30.6 °F 18.3 °F 29.66 in West 5.0 mph 7.0 mph 60% 0.00 in 134 W/m2
11:02 30.6 °F 17.6 °F 29.66 in SW 5.0 mph 5.0 mph 58% 0.00 in 134 W/m2
11:08 30.6 °F 17.2 °F 29.66 in SSW 4.0 mph 8.0 mph 57% 0.00 in 135 W/m2
11:14 30.5 °F 17.5 °F 29.66 in West 5.0 mph 8.0 mph 58% 0.00 in 141 W/m2
11:20 30.6 °F 17.2 °F 29.66 in WSW 5.0 mph 5.0 mph 57% 0.00 in 153 W/m2
11:26 30.7 °F 16.8 °F 29.66 in SSW 5.0 mph 6.0 mph 56% 0.00 in 172 W/m2
11:32 30.8 °F 17.7 °F 29.66 in SSW 6.0 mph 7.0 mph 58% 0.00 in 188 W/m2
11:38 30.9 °F 17.0 °F 29.66 in WSW 5.0 mph 10.0 mph 56% 0.00 in 186 W/m2
11:44 30.9 °F 17.0 °F 29.65 in WSW 6.0 mph 6.0 mph 56% 0.00 in 192 W/m2
11:50 31.0 °F 17.1 °F 29.65 in West 5.0 mph 5.0 mph 56% 0.00 in 207 W/m2
11:56 31.0 °F 16.7 °F 29.65 in WNW 5.0 mph 11.0 mph 55% 0.00 in 199 W/m2
12:02 31.2 °F 16.9 °F 29.65 in WNW 6.0 mph 6.0 mph 55% 0.00 in 174 W/m2
12:08 31.1 °F 15.9 °F 29.65 in SW 6.0 mph 7.0 mph 53% 0.00 in 179 W/m2
12:14 31.1 °F 16.4 °F 29.65 in West 5.0 mph 6.0 mph 54% 0.00 in 227 W/m2
12:20 31.4 °F 16.7 °F 29.65 in WSW 5.0 mph 9.0 mph 54% 0.00 in 243 W/m2
12:26 31.4 °F 15.8 °F 29.65 in West 6.0 mph 9.0 mph 52% 0.00 in 248 W/m2
12:32 31.4 °F 15.8 °F 29.65 in SSW 6.0 mph 9.0 mph 52% 0.00 in 230 W/m2
12:38 31.3 °F 15.7 °F 29.65 in WNW 6.0 mph 13.0 mph 52% 0.00 in 190 W/m2
12:44 31.3 °F 15.2 °F 29.65 in WSW 6.0 mph 7.0 mph 51% 0.00 in 179 W/m2
12:50 31.0 °F 15.8 °F 29.65 in NW 6.0 mph 6.0 mph 53% 0.00 in 169 W/m2
12:56 30.8 °F 15.7 °F 29.65 in WSW 6.0 mph 8.0 mph 53% 0.00 in 160 W/m2
13:02 31.0 °F 15.4 °F 29.65 in West 4.0 mph 5.0 mph 52% 0.00 in 167 W/m2
13:08 31.0 °F 15.8 °F 29.65 in West 5.0 mph 5.0 mph 53% 0.00 in 176 W/m2
13:14 31.2 °F 16.0 °F 29.65 in WNW 4.0 mph 10.0 mph 53% 0.00 in 193 W/m2
13:20 31.1 °F 15.5 °F 29.65 in WSW 5.0 mph 6.0 mph 52% 0.00 in 193 W/m2
13:26 31.2 °F 16.5 °F 29.65 in WSW 5.0 mph 8.0 mph 54% 0.00 in 190 W/m2
13:32 31.1 °F 15.5 °F 29.65 in NW 5.0 mph 6.0 mph 52% 0.00 in 200 W/m2
13:38 31.0 °F 15.8 °F 29.65 in West 6.0 mph 10.0 mph 53% 0.00 in 197 W/m2
13:44 31.0 °F 16.3 °F 29.65 in WSW 5.0 mph 6.0 mph 54% 0.00 in 179 W/m2
13:50 31.2 °F 16.5 °F 29.65 in WNW 4.0 mph 6.0 mph 54% 0.00 in 172 W/m2
13:56 31.2 °F 16.5 °F 29.65 in West 3.0 mph 6.0 mph 54% 0.00 in 188 W/m2
14:02 31.4 °F 17.5 °F 29.65 in WNW 4.0 mph 4.0 mph 56% 0.00 in 250 W/m2
14:08 31.6 °F 17.3 °F 29.65 in West 4.0 mph 7.0 mph 55% 0.00 in 255 W/m2
14:14 31.3 °F 16.6 °F 29.65 in WNW 5.0 mph 5.0 mph 54% 0.00 in 186 W/m2
14:20 31.0 °F 17.1 °F 29.65 in West 5.0 mph 5.0 mph 56% 0.00 in 165 W/m2
14:26 31.2 °F 17.7 °F 29.65 in WNW 3.0 mph 5.0 mph 57% 0.00 in 128 W/m2
14:32 30.8 °F 16.9 °F 29.65 in West 4.0 mph 6.0 mph 56% 0.00 in 165 W/m2
14:38 30.8 °F 16.9 °F 29.65 in NW 5.0 mph 6.0 mph 56% 0.00 in 176 W/m2
14:44 30.9 °F 17.4 °F 29.65 in West 4.0 mph 5.0 mph 57% 0.00 in 183 W/m2
14:50 31.0 °F 16.7 °F 29.65 in West 4.0 mph 5.0 mph 55% 0.00 in 155 W/m2
14:56 30.7 °F 16.4 °F 29.65 in West 5.0 mph 5.0 mph 55% 0.00 in 113 W/m2
15:02 30.7 °F 16.8 °F 29.66 in WSW 4.0 mph 4.0 mph 56% 0.00 in 120 W/m2
15:04 30.7 °F 17.3 °F 29.66 in WSW 3.0 mph 4.0 mph 57% 0.00 in 118 W/m2
15:10 30.8 °F 16.5 °F 29.66 in West 3.0 mph 5.0 mph 55% 0.00 in 100 W/m2
15:16 30.6 °F 16.3 °F 29.66 in WSW 4.0 mph 5.0 mph 55% 0.00 in 84 W/m2
15:22 30.7 °F 16.4 °F 29.67 in NW 3.0 mph 6.0 mph 55% 0.00 in 81 W/m2
15:28 30.6 °F 16.7 °F 29.67 in West 3.0 mph 9.0 mph 56% 0.00 in 90 W/m2
15:34 30.5 °F 16.7 °F 29.67 in SW 3.0 mph 4.0 mph 56% 0.00 in 84 W/m2
15:40 30.4 °F 16.6 °F 29.67 in West 3.0 mph 3.0 mph 56% 0.00 in 74 W/m2
15:46 30.4 °F 16.6 °F 29.67 in West 3.0 mph 4.0 mph 56% 0.00 in 76 W/m2
15:52 30.3 °F 16.5 °F 29.67 in WNW 3.0 mph 4.0 mph 56% 0.00 in 67 W/m2
15:58 30.3 °F 16.0 °F 29.67 in West 3.0 mph 5.0 mph 55% 0.00 in 65 W/m2
16:04 30.2 °F 15.5 °F 29.67 in West 4.0 mph 4.0 mph 54% 0.00 in 69 W/m2
16:10 30.1 °F 15.0 °F 29.67 in WNW 4.0 mph 4.0 mph 53% 0.00 in 74 W/m2
16:16 30.1 °F 15.0 °F 29.68 in SW 4.0 mph 4.0 mph 53% 0.00 in 67 W/m2
16:22 30.1 °F 15.0 °F 29.68 in SSW 3.0 mph 5.0 mph 53% 0.00 in 47 W/m2
16:28 29.8 °F 14.7 °F 29.68 in WSW 4.0 mph 7.0 mph 53% 0.00 in 33 W/m2
16:34 29.6 °F 15.0 °F 29.68 in West 4.0 mph 5.0 mph 54% 0.00 in 21 W/m2
16:42 29.5 °F 14.9 °F 29.69 in WNW 2.0 mph 6.0 mph 54% 0.00 in 9 W/m2
16:48 29.5 °F 14.5 °F 29.69 in West 4.0 mph 6.0 mph 53% 0.00 in 9 W/m2
16:54 29.4 °F 14.4 °F 29.69 in WSW 4.0 mph 8.0 mph 53% 0.00 in 7 W/m2
17:00 29.4 °F 13.9 °F 29.70 in NW 4.0 mph 6.0 mph 52% 0.00 in 5 W/m2
17:06 29.4 °F 14.8 °F 29.70 in WNW 3.0 mph 6.0 mph 54% 0.00 in 0 W/m2
17:12 29.3 °F 14.3 °F 29.70 in West 4.0 mph 4.0 mph 53% 0.00 in 0 W/m2
17:18 29.2 °F 13.7 °F 29.70 in WSW 4.0 mph 5.0 mph 52% 0.00 in 0 W/m2
17:24 29.2 °F 14.2 °F 29.70 in West 3.0 mph 4.0 mph 53% 0.00 in 0 W/m2
17:30 29.1 °F 14.5 °F 29.70 in WSW 3.0 mph 4.0 mph 54% 0.00 in 0 W/m2
17:36 29.1 °F 14.1 °F 29.70 in West 3.0 mph 4.0 mph 53% 0.00 in 0 W/m2
17:42 29.0 °F 14.4 °F 29.70 in WSW 3.0 mph 3.0 mph 54% 0.00 in 0 W/m2
17:48 29.0 °F 14.8 °F 29.70 in West 2.0 mph 3.0 mph 55% 0.00 in 0 W/m2
17:54 29.0 °F 14.8 °F 29.70 in West 2.0 mph 3.0 mph 55% 0.00 in 0 W/m2
18:00 28.9 °F 15.2 °F 29.70 in West 3.0 mph 3.0 mph 56% 0.00 in 0 W/m2
18:06 28.9 °F 15.2 °F 29.70 in West 3.0 mph 4.0 mph 56% 0.00 in 0 W/m2
18:12 28.9 °F 14.3 °F 29.70 in SW 4.0 mph 8.0 mph 54% 0.00 in 0 W/m2
18:18 28.8 °F 14.2 °F 29.70 in West 4.0 mph 8.0 mph 54% 0.00 in 0 W/m2
18:24 28.7 °F 14.1 °F 29.70 in West 4.0 mph 5.0 mph 54% 0.00 in 0 W/m2
18:30 28.7 °F 14.1 °F 29.71 in West 4.0 mph 4.0 mph 54% 0.00 in 0 W/m2
18:36 28.6 °F 14.5 °F 29.71 in West 4.0 mph 7.0 mph 55% 0.00 in 0 W/m2
18:42 28.5 °F 14.4 °F 29.71 in WSW 4.0 mph 4.0 mph 55% 0.00 in 0 W/m2
18:48 28.4 °F 14.3 °F 29.71 in WNW 3.0 mph 4.0 mph 55% 0.00 in 0 W/m2
18:54 28.4 °F 14.7 °F 29.71 in West 2.0 mph 4.0 mph 56% 0.00 in 0 W/m2
19:00 28.3 °F 14.6 °F 29.71 in WSW 2.0 mph 2.0 mph 56% 0.00 in 0 W/m2
19:06 28.2 °F 14.5 °F 29.71 in WNW 1.0 mph 2.0 mph 56% 0.00 in 0 W/m2
19:12 28.2 °F 14.1 °F 29.71 in WNW 3.0 mph 4.0 mph 55% 0.00 in 0 W/m2
19:18 28.1 °F 14.0 °F 29.71 in WSW 3.0 mph 4.0 mph 55% 0.00 in 0 W/m2
19:24 28.0 °F 14.3 °F 29.71 in West 2.0 mph 3.0 mph 56% 0.00 in 0 W/m2
19:30 27.7 °F 14.0 °F 29.71 in WSW 2.0 mph 4.0 mph 56% 0.00 in 0 W/m2
19:36 27.5 °F 13.8 °F 29.71 in NW 2.0 mph 4.0 mph 56% 0.00 in 0 W/m2
19:42 27.3 °F 13.7 °F 29.71 in WNW 2.0 mph 3.0 mph 56% 0.00 in 0 W/m2
19:48 27.3 °F 13.7 °F 29.71 in West 2.0 mph 3.0 mph 56% 0.00 in 0 W/m2
19:54 27.1 °F 13.9 °F 29.71 in WSW 2.0 mph 4.0 mph 57% 0.00 in 0 W/m2
20:00 27.1 °F 13.5 °F 29.71 in WNW 2.0 mph 2.0 mph 56% 0.00 in 0 W/m2
20:06 27.1 °F 13.9 °F 29.72 in WSW 2.0 mph 7.0 mph 57% 0.00 in 0 W/m2
20:12 27.0 °F 13.8 °F 29.72 in WSW 3.0 mph 3.0 mph 57% 0.00 in 0 W/m2
20:18 27.1 °F 14.3 °F 29.72 in WSW 2.0 mph 4.0 mph 58% 0.00 in 0 W/m2
20:24 27.1 °F 14.3 °F 29.72 in WSW 3.0 mph 3.0 mph 58% 0.00 in 0 W/m2
20:30 27.2 °F 14.4 °F 29.72 in West 3.0 mph 3.0 mph 58% 0.00 in 0 W/m2
20:36 27.2 °F 14.8 °F 29.72 in West 2.0 mph 3.0 mph 59% 0.00 in 0 W/m2
20:42 27.1 °F 14.7 °F 29.72 in West 1.0 mph 7.0 mph 59% 0.00 in 0 W/m2
20:48 27.1 °F 15.0 °F 29.72 in WSW 2.0 mph 7.0 mph 60% 0.00 in 0 W/m2
20:54 27.1 °F 14.7 °F 29.72 in WNW 2.0 mph 3.0 mph 59% 0.00 in 0 W/m2
21:00 27.1 °F 14.7 °F 29.72 in WNW 3.0 mph 3.0 mph 59% 0.00 in 0 W/m2
21:06 27.0 °F 14.6 °F 29.72 in West 2.0 mph 5.0 mph 59% 0.00 in 0 W/m2
21:12 26.9 °F 14.9 °F 29.72 in WNW 2.0 mph 2.0 mph 60% 0.00 in 0 W/m2
21:18 26.9 °F 14.9 °F 29.72 in West 1.0 mph 2.0 mph 60% 0.00 in 0 W/m2
21:24 26.9 °F 15.2 °F 29.72 in West 1.0 mph 1.0 mph 61% 0.00 in 0 W/m2
21:30 26.8 °F 15.1 °F 29.72 in NW 1.0 mph 2.0 mph 61% 0.00 in 0 W/m2
21:36 26.7 °F 15.0 °F 29.72 in West 1.0 mph 2.0 mph 61% 0.00 in 0 W/m2
21:42 26.7 °F 15.4 °F 29.72 in NNW 1.0 mph 1.0 mph 62% 0.00 in 0 W/m2
21:48 26.6 °F 15.7 °F 29.72 in NNW 1.0 mph 2.0 mph 63% 0.00 in 0 W/m2
21:54 26.5 °F 19.0 °F 29.72 in NNW 2.0 mph 3.0 mph 73% 0.00 in 0 W/m2
22:00 26.1 °F 19.9 °F 29.72 in NNW 3.0 mph 6.0 mph 77% 0.00 in 0 W/m2
22:06 25.5 °F 20.2 °F 29.72 in WNW 4.0 mph 7.0 mph 80% 0.00 in 0 W/m2
22:18 24.4 °F 20.5 °F 29.73 in NW 3.0 mph 5.0 mph 85% 0.00 in 0 W/m2
22:24 24.1 °F 20.5 °F 29.73 in NW 2.0 mph 5.0 mph 86% 0.00 in 0 W/m2
22:26 24.1 °F 20.8 °F 29.73 in NNW 2.0 mph 5.0 mph 87% 0.00 in 0 W/m2
22:28 24.0 °F 20.7 °F 29.73 in NNW 2.0 mph 5.0 mph 87% 0.00 in 0 W/m2
22:34 23.9 °F 20.6 °F 29.73 in North 4.0 mph 4.0 mph 87% 0.00 in 0 W/m2
22:40 23.7 °F 20.4 °F 29.73 in NW 4.0 mph 4.0 mph 87% 0.00 in 0 W/m2
22:46 23.7 °F 20.4 °F 29.73 in NNW 4.0 mph 4.0 mph 87% 0.00 in 0 W/m2
22:52 23.7 °F 20.4 °F 29.73 in NW 3.0 mph 3.0 mph 87% 0.00 in 0 W/m2
22:58 23.6 °F 20.0 °F 29.73 in North 2.0 mph 4.0 mph 86% 0.00 in 0 W/m2
23:04 23.5 °F 19.7 °F 29.73 in NNW 2.0 mph 5.0 mph 85% 0.00 in 0 W/m2
23:08 23.4 °F 19.6 °F 29.73 in NNW 2.0 mph 5.0 mph 85% 0.00 in 0 W/m2
23:14 23.3 °F 19.2 °F 29.73 in NNW 2.0 mph 2.0 mph 84% 0.00 in 0 W/m2
23:20 23.3 °F 19.2 °F 29.73 in NNW 1.0 mph 1.0 mph 84% 0.00 in 0 W/m2
23:26 23.3 °F 19.2 °F 29.73 in NNW 1.0 mph 1.0 mph 84% 0.00 in 0 W/m2
23:32 23.2 °F 18.8 °F 29.73 in NNW 1.0 mph 1.0 mph 83% 0.00 in 0 W/m2
23:38 23.2 °F 18.5 °F 29.73 in NNW 1.0 mph 1.0 mph 82% 0.00 in 0 W/m2
23:44 23.2 °F 18.5 °F 29.74 in Calm   1.0 mph 82% 0.00 in 0 W/m2
23:50 23.1 °F 18.1 °F 29.73 in Calm     81% 0.00 in 0 W/m2
23:56 23.0 °F 18.0 °F 29.73 in NNW 1.0 mph 3.0 mph 81% 0.00 in 0 W/m2
Country Meadow, Clay, NY, USA
Compliments of Weather Underground - 2 mb